Location: Boursonne
(49.2024°N, 3.0468°E)
Time: 08:16:50
(UTC+00:00)

ATLAS CENTAUR R/B - Pass Details

Date: 03 March 2021
Orbit: 475 x 670 km, 64.7° (Epoch: 30 March)

Event Time Altitude Azimuth Distance (km) Brightness Sun altitude
Rises 18:18:54 0° 185° (S) 2,520 4.8 -8.1°
Reaches altitude 10° 18:21:18 10° 171° (S) 1,640 3.7 -8.5°
Maximum altitude 18:24:13 23° 117° (ESE) 1,056 2.3 -8.9°
Enters shadow 18:27:02 11° 65° (ENE) 1,617 3.2 -9.4°
